Regional Weather Roundup
Issued by NWS Nashville, TN

Home | Current Version | Previous Version | Text Only | Print | Product List | Glossary On
Versions: 1 2 3 4 5 6 7 8 9 10 11 12 13 14 15 16 17 18 19 20 21 22 23 24 25 26 27
000
ASUS44 KOHX 012110
RWROHX
MIDDLE TENNESSEE HOURLY WEATHER ROUNDUP
NATIONAL WEATHER SERVICE NASHVILLE TN
400 PM CDT SUN MAY 01 2016

NOTE: "FAIR" INDICATES FEW OR NO CLOUDS BELOW 12,000 FEET WITH
NO SIGNIFICANT WEATHER AND/OR OBSTRUCTIONS TO VISIBILITY.

* THESE REPORTS ARE NOT UNDER NWS QUALITY CONTROL AND MAY NOT
  REPORT WEATHER SUCH AS PRECIPITATION AND FOG.


TNZ005>011-023>034-057-059-062>066-078-080-012200
...NORTHERN MIDDLE TENNESSEE...

CITY           SKY/WX    TMP DP  RH WIND       PRES   REMARKS
CLARKSVILLE    TSTM      70  62  76 SW9       29.92F
CROSSVILLE     CLOUDY    78  59  51 VRB6G16   29.99S
NASHVILLE      CLOUDY    82  61  48 S13       29.93S
SMYRNA         CLOUDY    81  65  58 S8        29.95R
SPARTA         SUNNY     81  64  57 SW8       29.94S
$$
TNZ056-058-060-061-075>077-079-093>097-012200
...SOUTHERN MIDDLE TENNESSEE...

CITY           SKY/WX    TMP DP  RH WIND       PRES   REMARKS
COLUMBIA       PTSUNNY   81  72  74 S14       29.95R
FAYETTEVILLE   MOSUNNY   75  66  73 S12       29.98S
MCMINNVILLE    SUNNY     77  64  65 SW6       29.97R
SHELBYVILLE    MOSUNNY   79  66  65 SW10      29.97R
TULLAHOMA      SUNNY     75  66  73 SW8       29.98S
WINCHESTER     MOSUNNY   75  64  69 SW10      29.98S
$$


...KEY TO REMARKS...
VSB - VISIBILITY IN MILES
WCI - WIND CHILL INDEX
HX  - HEAT INDEX





USA.gov is the U.S. government's official web portal to all federal, state and local government web resources and services.